This demonstration page uses our WeatherBlox Daily Observations layout. Learn more.

Left ArrowRight Arrow

39.51506, -84.39828

Hourly Observations for March 12, 2021

Temp ( °F °C ) Dew Point ( °F °C ) Humidity (%) Winds ( mph kmh ) Pressure ( in mb ) Visibility ( mi km ) Precip ( " mm )
12:15 am 00:15 Cloudy with Light Rain 54 12 N/A N/A SSW 5 7 30.23 1024 7 11 N/A
12:35 am 00:35 Cloudy 54 12 N/A N/A WSW 5 7 30.23 1024 10 16 N/A
12:55 am 00:55 Cloudy with Haze 54 12 N/A N/A WNW 3 6 30.24 1024 5 8 N/A
1:15 am 01:15 Cloudy 54 12 53 11.4 96 96 NW 9 15 30.25 1025 10 16 N/A
1:35 am 01:35 Cloudy 53 11.6 49 9.2 85 85 NNW 8 13 30.27 1025 10 16 N/A
1:55 am 01:55 Cloudy 52 11 46 7.9 81 81 NNW 9 15 30.27 1025 10 16 N/A
2:15 am 02:15 Mostly Cloudy 51 10.4 46 7.8 84 84 N 8 13 30.27 1025 10 16 N/A
2:35 am 02:35 Partly Cloudy 50 9.9 45 7.1 83 83 N 6 9 30.27 1025 10 16 N/A
2:55 am 02:55 Partly Cloudy 49 9.6 44 6.5 81 81 N 7 11 30.27 1025 10 16 N/A
3:15 am 03:15 Clear 48 9.1 41 5.1 76 76 N 8 13 30.26 1025 10 16 N/A
3:35 am 03:35 Partly Cloudy 47 8.4 40 4.6 77 77 N 8 13 30.27 1025 10 16 N/A
3:55 am 03:55 Partly Cloudy 47 8.1 40 4.4 78 78 N 7 11 30.28 1026 10 16 N/A
4:15 am 04:15 Clear 46 7.7 40 4.2 79 79 N 6 9 30.29 1026 10 16 N/A
4:35 am 04:35 Clear 46 7.6 39 4.1 79 79 NNE 7 11 30.31 1026 10 16 N/A
4:55 am 04:55 Clear 45 7.2 39 3.8 79 79 NNE 5 7 30.33 1027 10 16 N/A
5:15 am 05:15 Clear 45 7.1 39 4 81 81 NNE 5 7 30.33 1027 10 16 N/A
5:35 am 05:35 Clear 44 6.8 39 3.9 82 82 NE 6 9 30.34 1027 10 16 N/A
5:55 am 05:55 Clear 44 6.6 39 3.7 82 82 NE 5 7 30.35 1028 10 16 N/A
6:15 am 06:15 Clear 43 6.1 39 3.8 85 85 NNE 5 7 30.35 1028 10 16 N/A
6:35 am 06:35 Clear 41 4.9 38 3.6 91 91 N N/A 30.36 1028 10 16 N/A
6:55 am 06:55 Sunny 42 5.3 41 4.9 97 97 N N/A 30.37 1028 10 16 N/A
7:15 am 07:15 Sunny 41 4.8 41 4.8 100 100 N N/A 30.37 1029 10 16 N/A
7:35 am 07:35 Sunny 39 4 39 4 100 100 N N/A 30.39 1029 10 16 N/A
7:55 am 07:55 Sunny 39 4 N/A N/A N N/A 30.39 1029 10 16 N/A
8:15 am 08:15 Sunny 42 5.6 42 5.5 99 99 N N/A 30.40 1029 10 16 N/A
8:35 am 08:35 Sunny 44 6.7 39 4 83 83 NNW 5 7 30.40 1029 10 16 N/A
8:55 am 08:55 Sunny 45 7.4 39 3.9 79 79 N 3 6 30.41 1030 10 16 N/A
9:15 am 09:15 Sunny 47 8.3 38 3.1 70 70 NNE 5 7 30.41 1030 10 16 N/A
9:35 am 09:35 Sunny 47 8.6 37 2.5 66 66 NNE 6 9 30.41 1030 10 16 N/A
9:55 am 09:55 Sunny 49 9.4 37 2.7 63 63 NNE 7 11 30.42 1030 10 16 N/A
10:15 am 10:15 Sunny 49 9.5 37 2.6 62 62 NE 8 13 30.42 1030 10 16 N/A
10:35 am 10:35 Sunny 50 9.9 37 2.5 60 60 NNE 7 11 30.42 1030 10 16 N/A
10:55 am 10:55 Sunny 51 10.3 37 2.5 59 59 NE 7 11 30.42 1030 10 16 N/A
11:15 am 11:15 Sunny 51 10.6 37 2.5 58 58 ENE 7 11 30.42 1030 10 16 N/A
11:35 am 11:35 Sunny 52 10.9 36 2.3 56 56 E 8 13 30.42 1030 10 16 N/A
11:55 am 11:55 Sunny 53 11.9 35 1.8 50 50 NNW 7 11 30.40 1030 10 16 N/A
12:15 pm 12:15 Sunny 54 12 35 1.4 49 49 NW 6 9 30.40 1030 10 16 N/A
12:35 pm 12:35 Sunny 55 12.8 36 2.3 49 49 NNE 10 17 30.40 1030 10 16 N/A
12:55 pm 12:55 Sunny 56 13.5 36 2 46 46 N 8 13 30.40 1029 10 16 N/A
1:15 pm 13:15 Sunny 56 13.4 33 0.3 41 41 N 9 15 30.39 1029 10 16 N/A
1:35 pm 13:35 Sunny 57 14 33 0.5 40 40 N 8 13 30.39 1029 10 16 N/A
1:55 pm 13:55 Sunny 57 14 32 -0.2 38 38 NNW 12 19 30.38 1029 10 16 N/A
2:15 pm 14:15 Sunny 58 14.2 31 -0.8 36 36 NW 12 19 30.38 1029 10 16 N/A
2:35 pm 14:35 Sunny 59 15.1 33 0.4 37 37 WNW 9 15 30.38 1029 10 16 N/A
2:55 pm 14:55 Sunny 59 15.1 30 -1.3 33 33 NNW 9 15 30.37 1028 10 16 N/A
3:15 pm 15:15 Sunny 60 15.3 29 -1.4 32 32 NW 9 15 30.38 1029 10 16 N/A
3:35 pm 15:35 Sunny 60 15.3 29 -1.6 32 32 N 12 19 30.38 1029 10 16 N/A
3:55 pm 15:55 Sunny 60 15.3 29 -1.8 31 31 N 13 20 30.37 1028 10 16 N/A
4:15 pm 16:15 Sunny 59 15.1 29 -1.9 31 31 NNW 10 17 30.36 1028 10 16 N/A
4:35 pm 16:35 Sunny 59 15.1 28 -2.5 30 30 NNW 12 19 30.37 1028 10 16 N/A
4:55 pm 16:55 Sunny 59 15.2 28 -2 31 31 NNW 13 20 30.37 1028 10 16 N/A
5:15 pm 17:15 Sunny 58 14.2 28 -2.2 32 32 NNW 9 15 30.37 1028 10 16 N/A
5:35 pm 17:35 Sunny 57 14 28 -2.4 32 32 NNW 8 13 30.38 1029 10 16 N/A
5:55 pm 17:55 Sunny 56 13.6 28 -2.5 33 33 NNW 9 15 30.38 1029 10 16 N/A
6:15 pm 18:15 Sunny 55 12.9 30 -1.3 38 38 N 9 15 30.39 1029 10 16 N/A
6:35 pm 18:35 Sunny 54 12.4 29 -1.4 39 39 N 5 7 30.39 1029 10 16 N/A
6:55 pm 18:55 Clear 54 12.1 29 -1.6 39 39 NNW 3 6 30.40 1030 10 16 N/A
7:15 pm 19:15 Clear 54 12.1 28 -2.1 37 37 NNW 3 6 30.40 1030 10 16 N/A
7:35 pm 19:35 Clear 52 11 36 2.1 55 55 NNW 3 6 30.41 1030 10 16 N/A
7:55 pm 19:55 Clear 50 10 37 3 62 62 NNW 3 6 30.42 1030 10 16 N/A
8:15 pm 20:15 Clear 49 9.2 39 3.7 69 69 W 3 6 30.42 1030 10 16 N/A
8:35 pm 20:35 Clear 47 8.6 38 3.4 70 70 N N/A 30.42 1030 10 16 N/A
8:55 pm 20:55 Clear 48 8.7 38 3.3 69 69 NNW 5 7 30.42 1030 10 16 N/A
9:15 pm 21:15 Clear 48 9.1 35 1.8 61 61 NNE 3 6 30.42 1030 10 16 N/A
9:35 pm 21:35 Clear 49 9.6 29 -1.4 47 47 N 7 11 30.43 1030 10 16 N/A
9:55 pm 21:55 Clear 49 9.6 28 -2.2 44 44 NNW 5 7 30.45 1031 10 16 N/A
10:15 pm 22:15 Clear 49 9.5 28 -2.2 44 44 N 6 9 30.45 1031 10 16 N/A
10:35 pm 22:35 Clear 49 9.2 29 -1.9 46 46 N 8 13 30.45 1031 10 16 N/A
10:55 pm 22:55 Clear 48 8.8 29 -1.8 48 48 N 10 17 30.46 1032 10 16 N/A
11:15 pm 23:15 Clear 47 8.5 28 -2.1 48 48 N 12 19 30.45 1031 10 16 N/A
11:35 pm 23:35 Clear 47 8.2 28 -2.4 48 48 N 12 19 30.46 1032 10 16 N/A
11:55 pm 23:55 Partly Cloudy 46 7.7 25 -3.9 44 44 N 14 22 30.46 1031 10 16 N/A

Powered by AerisWeather